Regional Weather Roundup
Issued by NWS

Home | Current Version | Previous Version | Text Only | Print | Product List | Glossary On
Versions: 1 2 3 4 5 6 7 8 9 10 11 12 13 14 15 16 17 18 19 20 21 22 23 24 25 26 27 28
000
ASUS44 KBMX 241010
RWRAL

ALABAMA REGIONAL WEATHER ROUNDUP
NATIONAL WEATHER SERVICE BIRMINGHAM AL
500 AM CDT MON APR 24 2017

NOTE: "FAIR" INDICATES FEW OR NO CLOUDS BELOW 12,000 FEET
WITH NO SIGNIFICANT WEATHER AND/OR OBSTRUCTIONS TO VISIBILITY.

THE REMARK "TC" DENOTES TEMPERATURE IN DEGREES CELSIUS.

ALZ001>011-014-016>018-020-241100-
NORTH ALABAMA

CITY           SKY/WX    TMP DP  RH WIND       PRES   REMARKS
MUSCLE SHOALS  CLOUDY    54  51  90 VRB3      29.80R
HUNTSVILLE     CLOUDY    54  53  97 CALM      29.78F
DECATUR        CLOUDY    53  52  96 N3        29.80R
HALEYVILLE     CLOUDY    52  51  97 N5        29.80R
GADSDEN        CLOUDY    52  51  97 NW3       29.78S
$$

ALZ012-013-022-023-030>036-040>044-241100-
WEST CENTRAL ALABAMA

CITY           SKY/WX    TMP DP  RH WIND       PRES   REMARKS
TUSCALOOSA     CLOUDY    53  51  93 CALM      29.79F
$$

ALZ015-024>027-033>036-040>044-241100-
CENTRAL ALABAMA

CITY           SKY/WX    TMP DP  RH WIND       PRES   REMARKS
BIRMINGHAM     CLOUDY    52  48  86 N3        29.80S
MONTGOMERY     CLOUDY    55  47  74 NW7       29.78S
SHELBY CO ARPT CLOUDY    52  50  93 NW5       29.78S
MAXWELL AFB    CLOUDY    53  49  84 NW6       29.77F
GREENVILLE       N/A     52  47  83 NW5       29.77R
$$

ALZ019-021-028-029-037-038-045>048-241100-
EAST CENTRAL ALABAMA

CITY           SKY/WX    TMP DP  RH WIND       PRES   REMARKS
ANNISTON       CLOUDY    54  51  90 N3        29.76F
ALEXANDER CITY CLOUDY    53  49  88 NW6       29.76S
AUBURN         MOCLDY    54  52  94 NW7       29.76S
$$

ALZ051>064-241100-
SOUTHWEST ALABAMA

CITY           SKY/WX    TMP DP  RH WIND       PRES   REMARKS
MOBILE         MOCLDY    52  48  86 W3        29.82S
BROOKLEY FIELD CLOUDY    57  49  74 NW6       29.83S
EVERGREEN      CLOUDY    53  47  79 VRB3      29.78F
$$

ALZ049-050-065>069-241100-
SOUTHEAST ALABAMA

CITY           SKY/WX    TMP DP  RH WIND       PRES   REMARKS
DOTHAN         MOCLDY    54  52  93 NW8       29.79S
OZARK          CLOUDY    52  49  92 CALM      29.76S
TROY           CLOUDY    53  49  86 NW8       29.77S
EUFAULA        CLOUDY    53  50  89 W3        29.73F
$$




USA.gov is the U.S. government's official web portal to all federal, state and local government web resources and services.